Location: La Comballaz
(46.3780°N, 7.0817°E)
Time: 02:00:41
(UTC+00:00)

Cosmos 1825 - Pass Details

Date: 09 April 2020
Orbit: 502 x 509 km, 82.5° (Epoch: 26 May)

Event Time Altitude Azimuth Distance (km) Brightness Sun altitude
Rises 20:01:11 0° 5° (N) 2,628 6.2 -18.1°
Reaches altitude 10° 20:03:49 10° 23° (NNE) 1,735 5.0 -18.5°
Enters shadow 20:05:49 18° 54° (NE) 1,307 4.0 -18.8°
